NOAA NWS Hourly Roundups by Site

Regional Weather Roundup for Seattle, WA

To Select Another Site Choose from List

Select Site:  

324
ASUS46 KSEW 150120
RWRWA

WASHINGTON REGIONAL WEATHER ROUNDUP
NATIONAL WEATHER SERVICE SEATTLE WA
600 PM PDT FRI JUN 14 2024

NOTE:"FAIR" INDICATES FEW OR NO CLOUDS BELOW 12,000 FEET WITH NO
SIGNIFICANT WEATHER AND/OR OBSTRUCTIONS TO VISIBILITY.

WAZ507-509-555>559-150200-
SEATTLE, TACOMA, EVERETT, AND VICINITY

CITY           SKY/WX    TMP DP  RH WIND       PRES   REMARKS
EVERETT        PTSUNNY   63  46  54 S16G23    30.09F TC  17
BOEING FIELD   CLOUDY    60  48  64 SW10G21   30.11F TC  16
RENTON         LGT RAIN  60  48  64 VRB5      30.11S TC  16
SEATAC AIRPORT CLOUDY    57  46  66 W12       30.11F TC  14
JBLM-MCCHORD   LGT RAIN  57  48  72 W13       30.11S TC  14
PUYALLUP       CLOUDY    57  52  82 W5G12     30.11F TC  14
BREMERTON      LGT RAIN N/A N/A N/A S8        30.11F
JBLM-FT LEWIS  LGT RAIN  57  51  82 SW9       30.10S TC  14
TACOMA NARROWS LGT RAIN  55  52  89 SW7       30.12F TC  13
$$

WAZ001-503-506-510-514-515-150200-
NORTH INTERIOR

CITY           SKY/WX    TMP DP  RH WIND       PRES   REMARKS
BELLINGHAM     PTSUNNY   62  46  55 VRB5      30.08F TC  17
FRIDAY HARBOR  MOSUNNY   65  47  52 SE6       30.09F TC  18
EASTSOUND      CLOUDY    59  46  63 CALM      30.07S TC  15
PORT ANGELES   PTSUNNY   58  48  69 NW13G18   30.11F TC  14
EDIZ HOOK      LGT RAIN  55  51  86 W12       30.10F TC  13
PORT TOWNSEND  CLOUDY    57  50  77 NW8       30.07R TC  14
NAS WHIDBEY    PTSUNNY   61  53  75 E10       30.08F TC  16
ARLINGTON      PTSUNNY   62  45  53 S13       30.09F TC  17
BURLINGTON     PTSUNNY   61  59  94 CALM      30.08F TC  16
$$

WAZ020-022-039-040-504-511-512-150200-
SOUTHWEST INTERIOR

CITY           SKY/WX    TMP DP  RH WIND       PRES   REMARKS
SHELTON        PTSUNNY   57  50  77 SW9       30.10F TC  14
OLYMPIA        CLOUDY    58  52  80 W7        30.12F TC  14
CHEHALIS       CLOUDY    57  54  88 W7        30.12F TC  14
KELSO          CLOUDY    60  50  69 W13       30.13F TC  16
VANCOUVER      PTSUNNY   68  44  42 CALM      30.09F TC  20
SCAPPOOSE, OR  PTSUNNY  N/A N/A N/A VRB7      30.08F
PORTLAND, OR   PTSUNNY   72  44  36 NW9       30.07F TC  22
$$

WAZ021-516-517-150200-
WASHINGTON COAST

CITY           SKY/WX    TMP DP  RH WIND       PRES   REMARKS
FORKS          MOSUNNY   58  50  75 SW12      30.11F TC  14
HOQUIAM        PTSUNNY   56  50  80 W12       30.14F TC  13
ASTORIA, OR    CLOUDY    56  51  84 SW6       30.15F TC  13
$$

WAZ019-023-024-040-567>569-150200-
CASCADE MOUNTAINS AND COLUMBIA GORGE

CITY           SKY/WX    TMP DP  RH WIND       PRES   REMARKS
STAMPEDE PASS  CLOUDY    48  38  68 VRB6      30.09F TC   9
TROUTDALE, OR  CLOUDY    70  45  40 VRB5      30.07F TC  21
HOOD RIVER, OR PTSUNNY   64  39  39 NW5       30.04F TC  18
THE DALLES, OR PTSUNNY   71  39  31 NW17G29   30.01F TC  22
$$

WAZ026-027-041>044-520-521-150200-
EAST SLOPES

CITY           SKY/WX    TMP DP  RH WIND       PRES   REMARKS
OMAK           CLOUDY    71  35  26 SW9       29.92F TC  22
WENATCHEE      CLOUDY    69  32  25 NW14G23   29.96  TC  21
ELLENSBURG     PTSUNNY   66  36  32 NW22G32   30.00F TC  19
YAKIMA         PTSUNNY   72  36  26 N8        29.98F TC  22
SUNNYSIDE ARPT CLOUDY    73  36  25 CALM      29.97S TC  23
YAKIMA TC      FAIR      71  33  25 N8        29.94F TC  22
$$

WAZ028-034-035-150200-
COLUMBIA BASIN

CITY           SKY/WX    TMP DP  RH WIND       PRES   REMARKS
EPHRATA        CLOUDY    70  27  20 W12       29.96F TC  21
MOSES LAKE     CLOUDY    71  33  24 W9        29.97F TC  22
PASCO          CLOUDY    76  37  24 SW5       29.96F TC  24
RICHLAND ARPT  CLOUDY    76  35  22 S3        29.97F TC  25
HERMISTON, OR  CLOUDY    75  31  19 W10       29.98F TC  24
$$

WAZ036>038-150200-
NORTHEAST WASHINGTON

CITY           SKY/WX    TMP DP  RH WIND       PRES   REMARKS
SPOKANE GEIGER CLOUDY    69  29  22 SW17      29.98S TC  21
SPOKANE FELTS  PTSUNNY   70  30  22 SW17      29.97S TC  21
FAIRCHILD AFB  SUNNY     66  29  25 W13       29.98S TC  19
COEURDALENE,ID PTSUNNY   67  33  28 S9        29.98F TC  19
DEER PARK      PTSUNNY   69  26  20 W12G20    29.97S TC  21
$$

WAZ029>033-150200-
SOUTHEAST WASHINGTON

CITY           SKY/WX    TMP DP  RH WIND       PRES   REMARKS
PULLMAN        PTSUNNY   64  35  34 W9        30.03S TC  18
LEWISTON, ID   PTSUNNY   72  31  22 NW16G24   29.98R TC  22
WALLA WALLA    CLOUDY    71  33  24 SW8       29.99F TC  22
PENDLETON, OR  CLOUDY    72  32  23 W7        30.01F TC  22
$$



 

View Past Reports for Seattle, WA.

Products Courtesy of NOAA-NWS
NWS Information Parsing Script by Ken True at Saratoga Weather - Script by SE Lincoln Weather.